LiveATC.Net - Listen to live air traffic control over the Internet!


ICAO: RJSF  IATA: FKS   Airport: Fukushima Airport
City: Sukagawa
Country: Japan   Continent: Asia
RJSF METAR Weather: RJSF 250000Z 18008KT 150V210 9999 -RA FEW050 BKN090 OVC110 19/13 Q1013
RJSF Flight Activity (FlightAware)
RJSF Webcam: (Airport Webcams)
RJSF RDO
Feed Status: UP   Listeners: 1
Listen right in your browser - requires Flash (in browser, requires Flash)
Click here to listen with your own player (launches your MP3 player)
RJSF RDO Audio Archives
FacilityFrequency
Fukushima Radio118.050


NOTICE

Unauthorized use prohibited. See LiveATC.net Terms of Service


Find LiveATC Audio Streams


Airport/ARTCC Code

Frequency
(e.g., 124.400, 128.75)
Site-wide search

Browse LiveATC Feeds
LiveATC Coverage Map
Top 50 LiveATC Feeds
Bad Weather Areas

LiveATC FAQ
Offer a LiveATC Feed
Contact LiveATC.net
Press Inquiries

LiveATC on iPhone
LiveATC on Android

Windows Phone
Windows 8/10

LiveATC Mobile
(Mobile browser)

ATC Audio Archives
Interesting Recordings

LiveATC Forums


Home Page
About LiveATC.net
Make a Donation
LiveATC Store

Terms of Use
Privacy Policy

Canadian Air Freqs

AIRMETs/SIGMETs

FAA Airport Status
Nat'l Airspace Status
Arrival Demand Charts


Server Software By:
Icecast.org
Liquidsoap